Location: ??????????
(48.4699°N, 37.9573°E)
Time: 02:08:47
(UTC+00:00)

SeaSat 1 - Pass Details

Date: 20 January 2021
Orbit: 744 x 747 km, 108.0° (Epoch: 24 February)

Event Time Altitude Azimuth Distance (km) Brightness Sun altitude
Rises 14:54:35 0° 22° (NNE) 3,201 5.3 -7.8°
Reaches altitude 10° 14:57:05 10° 12° (NNE) 2,274 4.6 -8.1°
Maximum altitude 15:01:19 29° 313° (NW) 1,345 4.1 -8.8°
Drops below altitude 10° 15:05:31 10° 254° (WSW) 2,265 6.6 -9.5°
Sets 15:08:01 0° 244° (WSW) 3,186 7.9 -9.8°
